[[{"header":{"parameterUnit":"m.s-1","parameterCategory":2,"la1":30.2991,"la2":30.254,"lo1":-89.0895,"lo2":-89.0444,"dy":0.0017,"dx":0.0017,"nx":28,"ny":28,"refTime":"2024-05-15T03:00:00:Z","depth":"0","parameterNumber":2,"parameterNumberName":"U-component_of_CURRENTS"},"data":[0,0,0,0,0,0,0,0,0,0,0,0,0,0,0,0,0,0,0,0,0,0,0,0,0,0,0,0,0,0,0,0,0,0,0,0,0,0,0,0,0,0,0,0,0,0,0,0,0,0,0,0,0,0,0,0,0,0,0.2817,0.2818,0,0.2907,0.2908,0.2909,0.2942,0.2941,0.2941,0.294,0.3143,0.3149,0.3155,0,0,0,0,0,0,0,0,0,0,0,0,0,0.2759,0.276,0.2817,0.2818,0.2819,0.2907,0.2908,0.291,0.2942,0.2941,0.2941,0.294,0.3141,0.3148,0.3155,0,0,0,0,0,0,0,0,0,0,0,0,0,0.2813,0.276,0.2817,0.2843,0.2846,0.2906,0.2908,0.291,0.2942,0.2941,0.294,0.294,0.3139,0.3147,0.3156,0.3229,0,0,0.3183,0.3187,0,0,0,0,0,0,0,0,0.281,0.2816,0.2839,0.2842,0.2845,0.2909,0.2962,0.3021,0.2943,0.2909,0.294,0.2939,0.3074,0.3088,0.311,0.3239,0.3248,0.3184,0.319,0.3194,0.3196,0,0,0,0,0,0,0,0.2806,0.2812,0.2856,0.284,0.2843,0.2879,0.2886,0.2973,0.3,0.2912,0.2914,0.2919,0.3077,0.3101,0.3115,0.3251,0.3184,0.3192,0.3197,0.3201,0.347,0.3472,0,0,0,0,0,0,0.2785,0.2809,0.2853,0.2858,0.2821,0.288,0.2888,0.2892,0.2997,0.301,0.292,0.292,0.3086,0.3105,0.3123,0.3251,0.3193,0.3202,0.3207,0.3469,0.3471,0.3473,0,0,0,0,0,0,0.2784,0.2788,0.285,0.2833,0.2843,0.2881,0.2887,0.2895,0.2917,0.3001,0.3017,0.2933,0.3086,0.311,0.3216,0.3257,0.3206,0.3214,0.3466,0.3469,0.3472,0.3485,0,0,0,0,0,0,0.2782,0.2787,0.2789,0.2831,0.2843,0.2888,0.2888,0.2897,0.292,0.2921,0.3018,0.3036,0.3087,0.3203,0.3225,0.3269,0.3221,0.3464,0.3468,0.3471,0.3482,0.3487,0.3492,0,0,0,0,0,0.2779,0.2783,0.2789,0.2794,0.2842,0.2888,0.2899,0.2925,0.2921,0.294,0.3012,0.3033,0.3239,0.3212,0.3238,0.3285,0.3463,0.3467,0.3471,0.348,0.3486,0.3492,0,0,0,0,0,0,0.2752,0.2788,0.2795,0.2807,0.2844,0.2892,0.2909,0.2925,0.2994,0.3001,0.307,0.3095,0.3204,0.3242,0.321,0.337,0.3349,0.3359,0.3347,0.3355,0.336,0.3344,0.3228,0,0,0,0,0,0.2748,0.2763,0.2802,0.2812,0.2829,0.2869,0.289,0.2913,0.2972,0.2999,0.3068,0.3148,0.3243,0.3292,0.3377,0.3472,0.3485,0.3513,0.3519,0.3523,0.3527,0.3585,0.3595,0.3486,0.3486,0.3486,0,0,0.2736,0.276,0.2766,0.2809,0.2838,0.2878,0.2881,0.2917,0.2968,0.3017,0.3111,0.3178,0.3273,0.3381,0.3431,0.3416,0.3558,0.3528,0.3531,0.3533,0.359,0.3601,0.361,0.3489,0.3488,0.3488,0,0,0.273,0.2747,0.2761,0.2798,0.2844,0.2882,0.2889,0.2948,0.2992,0.3092,0.314,0.3222,0.3363,0.3432,0.3488,0.3572,0.3586,0.3597,0.3614,0.3671,0.368,0.3688,0.3698,0.3707,0.3595,0.3595,0.3595,0,0.2715,0.2742,0.2774,0.2805,0.2837,0.2881,0.2916,0.2979,0.3068,0.3124,0.3126,0.3324,0.3391,0.3525,0.355,0.3585,0.3601,0.3582,0.3675,0.3684,0.3692,0.3701,0.3711,0.3596,0.3596,0.3596,0.3596,0,0.2728,0.2754,0.2768,0.2826,0.2869,0.2907,0.2988,0.305,0.3107,0.3174,0.3311,0.3399,0.3508,0.3543,0.3581,0.368,0.3666,0.3676,0.3653,0.3704,0.371,0.3719,0.3598,0.3597,0.3597,0.3597,0,0,0.2683,0.276,0.2766,0.2796,0.2885,0.2919,0.3022,0.3129,0.3203,0.3298,0.3399,0.3539,0.3566,0.3629,0.3674,0.3719,0.378,0.3718,0.3721,0.3715,0.3876,0.3753,0.3752,0.3808,0.3811,0.3812,0.3849,0,0.2685,0.2734,0.2785,0.2848,0.2882,0.2968,0.306,0.3168,0.3274,0.3389,0.3489,0.3607,0.3609,0.3661,0.3708,0.3787,0.3811,0.3768,0.384,0.3841,0.3716,0.3762,0.369,0.3708,0.3858,0.386,0.3861,0,0.2682,0.272,0.2769,0.2866,0.289,0.2939,0.3086,0.3176,0.3355,0.3442,0.3559,0.3649,0.3763,0.3739,0.386,0.3834,0.3849,0.3879,0.3881,0.377,0.3738,0.3688,0.372,0.3677,0.3876,0.3875,0.3874,0,0.2631,0.2712,0.2748,0.2778,0.2895,0.2944,0.3016,0.3184,0.3275,0.347,0.3546,0.3704,0.3766,0.3847,0.3899,0.3901,0.3994,0.4008,0.3899,0.3889,0.3843,0.3824,0.3831,0.4062,0.4062,0.4061,0.4061,0,0.2614,0.2644,0.2719,0.2738,0.2799,0.2895,0.2992,0.3106,0.3265,0.3373,0.3544,0.3637,0.3794,0.3873,0.3923,0.3926,0.401,0.3904,0.39,0.3841,0.3822,0.3793,0.376,0.4063,0.4062,0.4062,0.4062,0,0.2553,0.2604,0.2644,0.2741,0.277,0.2809,0.2938,0.3017,0.3174,0.3314,0.3376,0.359,0.3707,0.3814,0.3937,0.3917,0.3863,0.3929,0.3818,0.3797,0.3647,0.3617,0.3418,0.3323,0.3846,0.3843,0.3841,0,0.2527,0.2539,0.2612,0.2631,0.2668,0.2737,0.2794,0.2953,0.3039,0.3275,0.333,0.3496,0.3617,0.373,0.3766,0.382,0.3739,0.3725,0.3711,0.3622,0.3589,0.3424,0.3348,0.366,0.3657,0.3654,0.3651,0,0.2475,0.2495,0.2524,0.2558,0.2595,0.265,0.2736,0.2789,0.2985,0.3101,0.3256,0.3377,0.3511,0.3564,0.3601,0.3625,0.3568,0.3659,0.3638,0.3487,0.3244,0.3155,0.3622,0.3625,0.3628,0.363,0.3631,0.3632,0.2424,0.2424,0.2454,0.248,0.2518,0.2554,0.2569,0.2678,0.2781,0.2941,0.3105,0.3235,0.3394,0.347,0.3439,0.338,0.3336,0.3357,0.3341,0.3191,0.3043,0.3402,0.3348,0.3349,0.3349,0.335,0.3351,0,0.2353,0.2361,0.2382,0.2399,0.2395,0.2453,0.2523,0.2526,0.259,0.2777,0.2898,0.3094,0.3149,0.3236,0.3264,0.315,0.2997,0.3068,0.29,0.2855,0.3276,0.3217,0.3047,0.3047,0.3047,0.3047,0.3047,0.3047,0.2316,0.2296,0.2304,0.2266,0.2278,0.2246,0.226,0.2288,0.2385,0.2515,0.2644,0.2786,0.3057,0.3164,0.3107,0.3011,0.281,0.2632,0.2597,0.3014,0.3042,0.3069,0.301,0.2799,0.2799,0.2109,0.2104,0.21]},{"header":{"parameterUnit":"m.s-1","parameterCategory":2,"la1":30.2991,"la2":30.254,"lo1":-89.0895,"lo2":-89.0444,"dy":0.0017,"dx":0.0017,"nx":28,"ny":28,"refTime":"2024-05-15T03:00:00:Z","depth":"0","parameterNumber":3,"parameterNumberName":"V-component_of_CURRENTS"},"data":[0,0,0,0,0,0,0,0,0,0,0,0,0,0,0,0,0,0,0,0,0,0,0,0,0,0,0,0,0,0,0,0,0,0,0,0,0,0,0,0,0,0,0,0,0,0,0,0,0,0,0,0,0,0,0,0,0,0,-0.0012,-0.0012,0,-0.0075,-0.0076,-0.0077,-0.0131,-0.0131,-0.0132,-0.0132,-0.018,-0.0181,-0.0183,0,0,0,0,0,0,0,0,0,0,0,0,0,-0.0014,-0.0013,-0.0012,-0.0012,-0.0013,-0.0075,-0.0076,-0.0077,-0.0131,-0.0131,-0.0132,-0.0132,-0.018,-0.0181,-0.0183,0,0,0,0,0,0,0,0,0,0,0,0,0,-0.0041,-0.0013,-0.0012,-0.0045,-0.0048,-0.0075,-0.0076,-0.0077,-0.0131,-0.0131,-0.0132,-0.0132,-0.018,-0.0181,-0.0183,-0.0184,0,0,-0.0187,-0.0188,0,0,0,0,0,0,0,0,-0.004,-0.0042,-0.0039,-0.0042,-0.0046,-0.0093,-0.0094,-0.0111,-0.0131,-0.0103,-0.0132,-0.0132,-0.0147,-0.0151,-0.0167,-0.0186,-0.0188,-0.0188,-0.0189,-0.0189,-0.019,0,0,0,0,0,0,0,-0.0038,-0.004,-0.004,-0.004,-0.0044,-0.0082,-0.0086,-0.0099,-0.0124,-0.0105,-0.0109,-0.011,-0.0149,-0.0166,-0.0169,-0.0189,-0.0188,-0.0189,-0.019,-0.019,-0.0175,-0.0173,0,0,0,0,0,0,-0.0018,-0.0037,-0.0038,-0.0042,-0.004,-0.0081,-0.0086,-0.008,-0.0125,-0.0131,-0.011,-0.0112,-0.0163,-0.0167,-0.0171,-0.0137,-0.0189,-0.0191,-0.0192,-0.0176,-0.0174,-0.0173,0,0,0,0,0,0,-0.0018,-0.0017,-0.0036,-0.0039,-0.0044,-0.0079,-0.0073,-0.0081,-0.0091,-0.0127,-0.0134,-0.0111,-0.0164,-0.0169,-0.0167,-0.0141,-0.0191,-0.0193,-0.0178,-0.0176,-0.0174,-0.0093,0,0,0,0,0,0,-0.0018,-0.0017,-0.0007,-0.0037,-0.0042,-0.0037,-0.0073,-0.0082,-0.009,-0.0094,-0.013,-0.0136,-0.0164,-0.0165,-0.0169,-0.0144,-0.0194,-0.0179,-0.0177,-0.0174,-0.0098,-0.0089,-0.0081,0,0,0,0,0,-0.0017,0.0005,-0.0006,-0.0007,-0.0027,-0.0036,-0.0042,-0.0073,-0.0089,-0.0086,-0.0108,-0.0135,-0.0152,-0.0165,-0.017,-0.0145,-0.0181,-0.0177,-0.0175,-0.0101,-0.0091,-0.0081,0,0,0,0,0,0,0.0011,0.0,-0.0012,0.0006,-0.0008,-0.0043,-0.004,-0.0063,-0.008,-0.0081,-0.0121,-0.0127,-0.0116,-0.0139,-0.0153,-0.0132,-0.0169,-0.0167,-0.0112,-0.0102,-0.0094,-0.0066,-0.0195,0,0,0,0,0,0.0023,0.0036,0.0016,0.0031,0.0028,-0.0005,-0.0013,-0.0032,-0.005,-0.006,-0.0083,-0.0102,-0.0108,-0.0112,-0.0125,-0.0114,-0.014,-0.0099,-0.0091,-0.0084,-0.0064,-0.0076,-0.0067,-0.0163,-0.0163,-0.0163,0,0,0.0039,0.0035,0.0042,0.0038,0.0023,0.0034,-0.0011,-0.0011,0.0002,-0.0059,-0.0046,-0.0074,-0.0099,-0.0087,-0.0083,-0.0102,-0.0074,-0.008,-0.0074,-0.0057,-0.0072,-0.0063,-0.0055,-0.0161,-0.0161,-0.0162,0,0,0.0081,0.0075,0.01,0.0094,0.0084,0.0067,0.0073,0.0047,0.0042,0.0048,0.0012,0.0005,-0.0012,-0.0023,-0.003,0.0019,-0.003,0.0012,0.0076,0.0064,0.0072,0.0078,0.004,0.0043,0.0016,0.0017,0.0017,0,0.01,0.0129,0.0105,0.0125,0.0132,0.0091,0.0119,0.011,0.0088,0.0099,0.0068,0.0054,0.0024,0.0048,0.006,0.0039,0.0014,0.0039,0.0075,0.0081,0.0086,0.0046,0.0048,0.0021,0.002,0.002,0.0019,0,0.0157,0.0179,0.0195,0.021,0.0213,0.0231,0.0218,0.0223,0.0208,0.0198,0.0215,0.0169,0.016,0.0149,0.0118,0.0148,0.011,0.0085,0.005,0.0101,0.0054,0.0055,0.0027,0.0025,0.0024,0.0023,0,0,0.0208,0.0232,0.0239,0.0263,0.0261,0.0274,0.0303,0.0324,0.0357,0.0327,0.0366,0.0338,0.0302,0.0292,0.0246,0.0236,0.0234,0.0183,0.018,0.0146,0.0189,0.0168,0.0166,0.0214,0.0215,0.0215,0.0135,0,0.0262,0.0322,0.0318,0.0379,0.0411,0.039,0.0425,0.0437,0.0436,0.0462,0.0424,0.0439,0.036,0.0356,0.0332,0.027,0.0243,0.0257,0.0146,0.0142,0.0118,0.0169,0.0199,0.0132,0.0135,0.0135,0.0135,0,0.0326,0.0358,0.0428,0.0475,0.0489,0.0518,0.0569,0.0594,0.0614,0.0614,0.0607,0.057,0.0552,0.0477,0.0387,0.0398,0.0303,0.0243,0.0238,0.0197,0.0124,0.0085,0.0132,-0.0,0.0135,0.0135,0.0135,0,0.0383,0.044,0.0502,0.0516,0.0558,0.0594,0.0619,0.0647,0.0692,0.0715,0.0744,0.0697,0.0684,0.0579,0.0436,0.0414,0.0333,0.028,0.0166,0.0161,0.0158,0.0152,0.007,0.0217,0.0217,0.0217,0.0218,0,0.0448,0.0499,0.0538,0.0572,0.0658,0.0662,0.0752,0.0767,0.0813,0.0888,0.0825,0.0862,0.0712,0.0639,0.0489,0.0338,0.0363,0.0196,0.0155,0.0184,0.0182,0.0041,-0.0044,0.0214,0.0215,0.0215,0.0216,0,0.0503,0.0526,0.0602,0.0661,0.0689,0.075,0.0835,0.09,0.0927,0.1021,0.1036,0.0996,0.0903,0.0734,0.0566,0.0415,0.0191,0.02,0.0232,0.0198,-0.0031,-0.0113,-0.0242,-0.0303,0.0067,0.0067,0.0066,0,0.0535,0.0582,0.0668,0.0719,0.0751,0.0839,0.0907,0.0956,0.103,0.1108,0.1164,0.1107,0.1091,0.0829,0.0565,0.031,0.0163,0.0154,0.0121,-0.0019,-0.0141,-0.0201,-0.0247,0.0129,0.0129,0.0129,0.0129,0,0.0596,0.0626,0.0685,0.0792,0.0874,0.0972,0.1072,0.1149,0.1225,0.1312,0.1399,0.1398,0.1151,0.0929,0.0575,0.0381,0.0075,0.0143,0.0003,-0.0082,-0.0155,-0.0241,0.0129,0.0129,0.0129,0.0129,0.0129,0.0129,0.0638,0.0689,0.0768,0.0872,0.0969,0.1097,0.1197,0.1313,0.1456,0.1603,0.1576,0.1627,0.1292,0.0821,0.0532,0.006,0.0037,-0.0076,-0.0163,-0.021,-0.0259,0.0103,0.0056,0.0056,0.0055,0.0055,0.0055,0,0.0685,0.0745,0.0842,0.0969,0.1084,0.1131,0.1303,0.1421,0.1608,0.1751,0.1835,0.1747,0.1304,0.0847,0.0208,-0.0153,-0.0287,-0.0351,-0.0423,-0.0456,-0.0124,-0.0109,-0.0197,-0.0197,-0.0197,-0.0197,-0.0196,-0.0196,0.0712,0.0806,0.0857,0.1045,0.1142,0.1316,0.1425,0.1608,0.1757,0.1975,0.2066,0.2097,0.1805,0.0578,-0.0228,-0.0431,-0.0659,-0.0728,-0.0854,-0.0626,-0.0606,-0.0588,-0.0592,-0.078,-0.0781,-0.1121,-0.1125,-0.1128]}],[{"header":{"parameterUnit":"m.s-1","parameterCategory":2,"la1":30.2991,"la2":30.254,"lo1":-89.0895,"lo2":-89.0444,"dy":0.0017,"dx":0.0017,"nx":28,"ny":28,"refTime":"2024-05-15T03:00:00:Z","depth":"2","parameterNumber":2,"parameterNumberName":"U-component_of_CURRENTS"},"data":[0,0,0,0,0,0,0,0,0,0,0,0,0,0,0,0,0,0,0,0,0,0,0,0,0,0,0,0,0,0,0,0,0,0,0,0,0,0,0,0,0,0,0,0,0,0,0,0,0,0,0,0,0,0,0,0,0,0,0.2531,0.2531,0,0.259,0.2591,0.2592,0.2612,0.2612,0.2612,0.2611,0.2704,0.2707,0.2709,0,0,0,0,0,0,0,0,0,0,0,0,0,0.2473,0.2474,0.253,0.2531,0.2532,0.259,0.2591,0.2592,0.2612,0.2612,0.2612,0.2611,0.2703,0.2706,0.271,0,0,0,0,0,0,0,0,0,0,0,0,0,0.2513,0.2474,0.253,0.2548,0.255,0.259,0.2591,0.2592,0.2612,0.2612,0.2611,0.2611,0.2702,0.2706,0.271,0.2746,0,0,0.2723,0.2725,0,0,0,0,0,0,0,0,0.2511,0.2515,0.2545,0.2547,0.2549,0.2592,0.2605,0.2645,0.2613,0.259,0.2611,0.2611,0.2669,0.2676,0.269,0.2751,0.2755,0.2723,0.2726,0.2728,0.2729,0,0,0,0,0,0,0,0.2508,0.2513,0.2555,0.2546,0.2548,0.2566,0.2571,0.2613,0.2633,0.2592,0.2593,0.2598,0.2671,0.2686,0.2692,0.2756,0.2723,0.2727,0.273,0.2731,0.2955,0.2958,0,0,0,0,0,0,0.2497,0.251,0.2553,0.2557,0.2527,0.2567,0.2573,0.258,0.2632,0.2639,0.2599,0.2599,0.2679,0.2687,0.2696,0.2797,0.2728,0.2732,0.2734,0.2952,0.2956,0.296,0,0,0,0,0,0,0.2495,0.25,0.2551,0.2534,0.2541,0.2569,0.2577,0.2581,0.2601,0.2637,0.2644,0.2613,0.2679,0.269,0.2776,0.2799,0.2733,0.2737,0.2948,0.2953,0.2958,0.2965,0,0,0,0,0,0,0.2493,0.2499,0.2504,0.2533,0.2542,0.2581,0.2577,0.2583,0.2604,0.2605,0.2652,0.266,0.2679,0.277,0.278,0.2803,0.2741,0.2943,0.295,0.2956,0.296,0.297,0.2978,0,0,0,0,0,0.2491,0.2499,0.2504,0.251,0.2547,0.2582,0.2589,0.2607,0.2605,0.2621,0.2679,0.2659,0.2817,0.2776,0.2787,0.2812,0.294,0.2948,0.2956,0.2956,0.2968,0.2977,0,0,0,0,0,0,0.2471,0.2503,0.2509,0.2524,0.2553,0.2585,0.2601,0.2612,0.2667,0.2675,0.2704,0.2719,0.2801,0.2822,0.2776,0.2904,0.2875,0.2885,0.2872,0.2883,0.2891,0.2881,0.2744,0,0,0,0,0,0.247,0.2488,0.2519,0.2532,0.2547,0.2575,0.2592,0.2608,0.2655,0.2676,0.2714,0.2773,0.2842,0.2873,0.2931,0.2998,0.3004,0.3027,0.3035,0.3042,0.3048,0.3097,0.3109,0.2985,0.2985,0.2985,0,0,0.2462,0.2484,0.2492,0.253,0.2553,0.2585,0.2585,0.2617,0.2655,0.2681,0.2752,0.2804,0.2872,0.2955,0.2992,0.2971,0.3081,0.3052,0.3056,0.3059,0.3106,0.3117,0.3127,0.299,0.2989,0.2988,0,0,0.2462,0.2481,0.2499,0.2529,0.257,0.2595,0.2605,0.2649,0.2682,0.2764,0.2798,0.287,0.2965,0.3015,0.3055,0.3151,0.3128,0.317,0.3196,0.3244,0.3253,0.3261,0.3266,0.3275,0.3169,0.3169,0.3169,0,0.2452,0.248,0.2509,0.254,0.2566,0.26,0.2629,0.2675,0.2744,0.279,0.2794,0.2955,0.2996,0.3101,0.314,0.3164,0.3178,0.3138,0.3249,0.3257,0.3266,0.3269,0.3279,0.317,0.317,0.317,0.317,0,0.2469,0.2496,0.2512,0.2563,0.2597,0.2631,0.2691,0.274,0.2786,0.2838,0.2953,0.3024,0.3115,0.3141,0.3173,0.326,0.3246,0.3249,0.3204,0.3277,0.3278,0.3287,0.3172,0.3172,0.3171,0.3171,0,0,0.2434,0.2508,0.2514,0.2541,0.2614,0.2641,0.2721,0.2804,0.2862,0.2944,0.3029,0.3145,0.3175,0.3225,0.326,0.3302,0.3362,0.3303,0.3304,0.3275,0.3444,0.3342,0.3342,0.3383,0.3385,0.3387,0.3412,0,0.2438,0.2488,0.2532,0.2586,0.2617,0.2684,0.2755,0.284,0.2923,0.3018,0.3106,0.3204,0.3209,0.3257,0.3304,0.3368,0.3392,0.3353,0.3407,0.3408,0.3282,0.3352,0.3134,0.3131,0.3421,0.3423,0.3424,0,0.2439,0.2476,0.2522,0.2604,0.2625,0.2666,0.278,0.2849,0.2995,0.307,0.3173,0.3246,0.335,0.3333,0.3441,0.3419,0.3432,0.3456,0.3458,0.3367,0.3325,0.3115,0.3137,0.3439,0.3438,0.3437,0.3436,0,0.2394,0.2469,0.2503,0.253,0.2629,0.2671,0.273,0.2863,0.2935,0.3098,0.3167,0.3301,0.3364,0.3431,0.348,0.3478,0.3568,0.3568,0.3476,0.3467,0.3294,0.3266,0.3619,0.3619,0.3619,0.3619,0.3619,0,0.2379,0.2407,0.2481,0.2499,0.2553,0.2635,0.2715,0.2807,0.2944,0.3034,0.3174,0.3255,0.3393,0.3462,0.3502,0.351,0.3581,0.3489,0.3479,0.329,0.3263,0.3545,0.3536,0.362,0.362,0.362,0.362,0,0.2324,0.2374,0.2413,0.2502,0.2529,0.2564,0.2679,0.2742,0.2879,0.2997,0.3052,0.3234,0.3336,0.3423,0.3529,0.351,0.3548,0.3516,0.3264,0.3223,0.3408,0.34,0.3445,0.3442,0.3439,0.3437,0.3435,0,0.23,0.2314,0.2387,0.2405,0.2442,0.2507,0.2556,0.2696,0.2764,0.2971,0.3017,0.3164,0.326,0.336,0.3375,0.3408,0.3472,0.3182,0.3143,0.3411,0.3397,0.3393,0.3388,0.2912,0.2906,0.2901,0.2897,0,0.2252,0.2275,0.2303,0.2339,0.2377,0.2424,0.2501,0.2545,0.2715,0.2815,0.2949,0.3047,0.3157,0.3115,0.3138,0.3127,0.3173,0.3081,0.3447,0.2987,0.291,0.2895,0.2908,0.2854,0.2858,0.2861,0.2864,0.2865,0.2206,0.2206,0.2239,0.2266,0.2302,0.2329,0.2339,0.2432,0.2517,0.264,0.2791,0.285,0.2911,0.2861,0.2781,0.2719,0.2941,0.283,0.2845,0.2866,0.2796,0.2719,0.2612,0.2615,0.2617,0.2619,0.2621,0,0.2138,0.2147,0.2168,0.2184,0.2176,0.2236,0.2289,0.2277,0.2323,0.2461,0.2554,0.2412,0.2404,0.2444,0.2305,0.2305,0.2281,0.2201,0.2166,0.2213,0.2254,0.2152,0.1797,0.1794,0.1791,0.1788,0,0,0.2102,0.2083,0.2089,0.2048,0.2061,0.2024,0.2031,0.2034,0.209,0.2103,0.2126,0.2327,0.2415,0.2083,0.2045,0.1897,0.203,0.182,0.2496,0.2506,0.2542,0.2649,0.2549,0,0,0,0,0]},{"header":{"parameterUnit":"m.s-1","parameterCategory":2,"la1":30.2991,"la2":30.254,"lo1":-89.0895,"lo2":-89.0444,"dy":0.0017,"dx":0.0017,"nx":28,"ny":28,"refTime":"2024-05-15T03:00:00:Z","depth":"2","parameterNumber":3,"parameterNumberName":"V-component_of_CURRENTS"},"data":[0,0,0,0,0,0,0,0,0,0,0,0,0,0,0,0,0,0,0,0,0,0,0,0,0,0,0,0,0,0,0,0,0,0,0,0,0,0,0,0,0,0,0,0,0,0,0,0,0,0,0,0,0,0,0,0,0,0,-0.0042,-0.0042,0,-0.0101,-0.0102,-0.0102,-0.0149,-0.0149,-0.015,-0.015,-0.0189,-0.019,-0.0191,0,0,0,0,0,0,0,0,0,0,0,0,0,-0.0037,-0.0036,-0.0042,-0.0042,-0.0043,-0.0101,-0.0102,-0.0103,-0.0149,-0.0149,-0.015,-0.015,-0.0189,-0.019,-0.0191,0,0,0,0,0,0,0,0,0,0,0,0,0,-0.0064,-0.0036,-0.0042,-0.0071,-0.0074,-0.01,-0.0102,-0.0103,-0.0149,-0.0149,-0.015,-0.015,-0.0188,-0.019,-0.0191,-0.0192,0,0,-0.0195,-0.0195,0,0,0,0,0,0,0,0,-0.0062,-0.0064,-0.0066,-0.0069,-0.0073,-0.0116,-0.0114,-0.0131,-0.0149,-0.0123,-0.015,-0.015,-0.0161,-0.0164,-0.0179,-0.0193,-0.0195,-0.0195,-0.0196,-0.0196,-0.0196,0,0,0,0,0,0,0,-0.006,-0.0062,-0.0068,-0.0067,-0.0071,-0.0104,-0.0108,-0.0118,-0.0141,-0.0126,-0.0129,-0.0131,-0.0163,-0.0177,-0.018,-0.0196,-0.0195,-0.0196,-0.0197,-0.0197,-0.0186,-0.0185,0,0,0,0,0,0,-0.0044,-0.006,-0.0066,-0.0069,-0.0065,-0.0103,-0.0108,-0.0104,-0.0141,-0.0147,-0.013,-0.0133,-0.0175,-0.0178,-0.0181,-0.0153,-0.0196,-0.0197,-0.0198,-0.0187,-0.0186,-0.0185,0,0,0,0,0,0,-0.0043,-0.0043,-0.0064,-0.0065,-0.0069,-0.0102,-0.0098,-0.0105,-0.0114,-0.0145,-0.0151,-0.0132,-0.0175,-0.0179,-0.0178,-0.0155,-0.0198,-0.0199,-0.0188,-0.0187,-0.0185,-0.0115,0,0,0,0,0,0,-0.0043,-0.0043,-0.0034,-0.0063,-0.0068,-0.0066,-0.0097,-0.0105,-0.0114,-0.0117,-0.0148,-0.0152,-0.0176,-0.0176,-0.0179,-0.0158,-0.02,-0.019,-0.0188,-0.0186,-0.0119,-0.0111,-0.0105,0,0,0,0,0,-0.0042,-0.0024,-0.0034,-0.0034,-0.0055,-0.0065,-0.0071,-0.0099,-0.0113,-0.011,-0.0129,-0.0151,-0.0166,-0.0176,-0.018,-0.0159,-0.0191,-0.0188,-0.0186,-0.0122,-0.0113,-0.0105,0,0,0,0,0,0,-0.0017,-0.0027,-0.0039,-0.0025,-0.0039,-0.0072,-0.007,-0.009,-0.0105,-0.0105,-0.0139,-0.0145,-0.0135,-0.0155,-0.0165,-0.015,-0.0181,-0.018,-0.0131,-0.0123,-0.0116,-0.0089,-0.0201,0,0,0,0,0,-0.0006,0.0005,-0.0015,-0.0003,-0.0006,-0.0037,-0.0045,-0.0061,-0.0079,-0.0087,-0.0107,-0.0123,-0.0129,-0.0132,-0.0143,-0.0135,-0.016,-0.0123,-0.0116,-0.011,-0.009,-0.0109,-0.0102,-0.0177,-0.0177,-0.0177,0,0,0.0008,0.0004,0.001,0.0003,-0.001,-0.0002,-0.0042,-0.0044,-0.0032,-0.0086,-0.0073,-0.0099,-0.0121,-0.0112,-0.0109,-0.0125,-0.0105,-0.0107,-0.0102,-0.0085,-0.0105,-0.0098,-0.0092,-0.0176,-0.0176,-0.0176,0,0,0.0045,0.0039,0.006,0.0054,0.0044,0.0028,0.0033,0.0009,0.0004,0.0009,-0.0023,-0.0031,-0.0046,-0.0056,-0.0064,-0.0023,-0.0068,-0.003,0.0026,0.0008,0.0014,0.002,-0.0018,-0.0016,-0.0027,-0.0027,-0.0027,0,0.0061,0.0087,0.0064,0.0082,0.0087,0.0049,0.0074,0.0066,0.0045,0.0054,0.0027,0.0011,-0.0015,0.0003,0.0014,-0.0006,-0.0032,-0.0004,0.0018,0.0022,0.0026,-0.0013,-0.0012,-0.0024,-0.0024,-0.0024,-0.0025,0,0.0111,0.0131,0.0145,0.0158,0.0159,0.0175,0.0163,0.0167,0.0154,0.0143,0.0155,0.0113,0.0103,0.0092,0.0065,0.0085,0.0051,0.0027,-0.0003,0.0038,-0.0006,-0.0007,-0.0018,-0.002,-0.0021,-0.0022,0,0,0.0153,0.0177,0.0182,0.0206,0.0203,0.0214,0.024,0.0257,0.0285,0.0256,0.0288,0.0261,0.0228,0.0218,0.0176,0.0161,0.0152,0.0112,0.011,0.0077,0.0099,0.0085,0.0082,0.0129,0.013,0.0131,0.005,0,0.0201,0.0256,0.0252,0.0308,0.0337,0.0319,0.035,0.0358,0.0356,0.0375,0.0338,0.0349,0.0279,0.0275,0.0248,0.0186,0.0157,0.0176,0.0063,0.006,0.0044,0.0083,0.0102,0.0033,0.0049,0.0049,0.0049,0,0.0257,0.0287,0.0351,0.0396,0.0408,0.0436,0.0481,0.0503,0.0515,0.0513,0.0502,0.0466,0.0444,0.0377,0.0284,0.0298,0.0208,0.0149,0.0144,0.0113,0.0047,-0.0002,0.0031,0.0047,0.0047,0.0047,0.0047,0,0.0309,0.0361,0.0419,0.0432,0.0472,0.0506,0.0529,0.0551,0.0591,0.0604,0.0628,0.0577,0.0564,0.0459,0.0324,0.0305,0.0217,0.0169,0.0067,0.0063,0.0051,0.0046,0.0104,0.0104,0.0104,0.0104,0.0104,0,0.0366,0.0413,0.0453,0.0485,0.0566,0.0569,0.0652,0.0665,0.0703,0.0769,0.0704,0.0733,0.0586,0.0511,0.0368,0.0225,0.0242,0.0094,0.0055,0.0073,0.0072,0.0064,0.006,0.0101,0.0102,0.0102,0.0103,0,0.0416,0.0438,0.0511,0.0568,0.0595,0.0653,0.0734,0.0792,0.0813,0.0896,0.0908,0.0859,0.0763,0.0599,0.0433,0.0294,0.0151,0.0087,0.0112,0.0079,-0.0011,-0.001,-0.0031,-0.0032,-0.0033,-0.0033,-0.0034,0,0.0445,0.049,0.0574,0.0624,0.0656,0.074,0.0804,0.0848,0.0915,0.0978,0.1027,0.0964,0.0938,0.0681,0.0433,0.019,0.0149,0.0036,0.0009,0.0018,-0.0018,-0.0016,-0.0014,0.0001,0.0001,0.0001,0.0001,0,0.0502,0.0532,0.0589,0.0695,0.0774,0.0868,0.0962,0.1033,0.11,0.1173,0.1242,0.123,0.0989,0.076,0.0426,0.0251,0.0079,0.0025,0.0042,0.0042,0.0045,0.0011,0.0012,-0.0,-0.0,-0.0,-0.0,-0.0,0.0542,0.0591,0.067,0.0772,0.0866,0.0986,0.1081,0.1185,0.1312,0.143,0.1397,0.1387,0.1109,0.0695,0.0387,0.006,0.0078,-0.0042,-0.004,-0.0039,-0.0011,-0.0008,-0.006,-0.006,-0.006,-0.0061,-0.0061,0,0.059,0.0648,0.0741,0.0866,0.0976,0.1023,0.1182,0.1283,0.1448,0.1541,0.16,0.1344,0.1072,0.0739,0.0265,-0.0015,-0.005,-0.0119,-0.0093,-0.0089,-0.0086,-0.006,-0.0123,-0.0124,-0.0125,-0.0126,0,0,0.0616,0.0707,0.0756,0.0937,0.1033,0.1197,0.1298,0.145,0.1555,0.1658,0.1657,0.1601,0.1199,0.0843,0.0449,0.017,0.0103,0.0103,0.0187,0.0269,0.0276,-0.0007,0.0043,0,0,0,0,0]}],[{"header":{"parameterUnit":"m.s-1","parameterCategory":2,"la1":30.2991,"la2":30.254,"lo1":-89.0895,"lo2":-89.0444,"dy":0.0017,"dx":0.0017,"nx":28,"ny":28,"refTime":"2024-05-15T03:00:00:Z","depth":"4","parameterNumber":2,"parameterNumberName":"U-component_of_CURRENTS"},"data":[0,0,0,0,0,0,0,0,0,0,0,0,0,0,0,0,0,0,0,0,0,0,0,0,0,0,0,0,0,0,0,0,0,0,0,0,0,0,0,0,0,0,0,0,0,0,0,0,0,0,0,0,0,0,0,0,0,0,0.1762,0.1763,0,0.1771,0.1771,0.177,0.1783,0.1784,0.1785,0.1786,0.1757,0.1755,0.1753,0,0,0,0,0,0,0,0,0,0,0,0,0,0.1673,0.1674,0.1762,0.1763,0.1764,0.1772,0.1771,0.177,0.1783,0.1784,0.1786,0.1787,0.1758,0.1755,0.1753,0,0,0,0,0,0,0,0,0,0,0,0,0,0.1691,0.1674,0.1762,0.1778,0.178,0.1772,0.1771,0.177,0.1783,0.1784,0.1786,0.1787,0.1758,0.1756,0.1753,0.1705,0,0,0.1745,0.1744,0,0,0,0,0,0,0,0,0.169,0.1693,0.1775,0.1777,0.178,0.1786,0.1729,0.1749,0.1782,0.1772,0.1786,0.1788,0.1768,0.1764,0.175,0.1703,0.1702,0.1745,0.1743,0.1742,0.1741,0,0,0,0,0,0,0,0.1689,0.1693,0.1757,0.1776,0.1779,0.1757,0.1761,0.1732,0.1753,0.1773,0.1776,0.1792,0.1768,0.1753,0.175,0.1702,0.1745,0.1742,0.1741,0.174,0.1777,0.178,0,0,0,0,0,0,0.1709,0.1692,0.1756,0.1758,0.1748,0.1759,0.1763,0.1775,0.1754,0.1756,0.179,0.1792,0.1756,0.1753,0.1749,0.18,0.1742,0.1739,0.1738,0.1775,0.1778,0.1781,0,0,0,0,0,0,0.1707,0.1714,0.1756,0.1732,0.1737,0.176,0.1772,0.1774,0.1804,0.177,0.1769,0.1825,0.1758,0.1752,0.1752,0.1795,0.1738,0.1736,0.1772,0.1776,0.1779,0.1833,0,0,0,0,0,0,0.1704,0.1713,0.1737,0.1734,0.174,0.1782,0.1772,0.1774,0.1813,0.1816,0.1797,0.1794,0.1758,0.1756,0.1749,0.1791,0.1734,0.1769,0.1774,0.1778,0.1828,0.1839,0.1847,0,0,0,0,0,0.1701,0.1723,0.1738,0.1747,0.1769,0.1784,0.1784,0.1798,0.1814,0.1829,0.1815,0.1797,0.1785,0.1754,0.1746,0.1788,0.1766,0.1772,0.1778,0.1824,0.1837,0.1847,0,0,0,0,0,0,0.1691,0.1727,0.1743,0.1775,0.1797,0.1791,0.1814,0.1824,0.1823,0.1837,0.18,0.1794,0.1801,0.18,0.1768,0.1822,0.1785,0.1789,0.1823,0.1834,0.1844,0.1849,0.1732,0,0,0,0,0,0.1703,0.1737,0.1759,0.179,0.1808,0.1819,0.1833,0.1846,0.1846,0.185,0.1838,0.1835,0.1811,0.1829,0.1796,0.1825,0.1827,0.1861,0.1871,0.1879,0.1883,0.1917,0.1929,0.18,0.18,0.18,0,0,0.1709,0.1736,0.1755,0.1793,0.181,0.1829,0.183,0.1869,0.1881,0.1844,0.1862,0.1842,0.1817,0.1829,0.1842,0.1845,0.1922,0.1886,0.1892,0.1892,0.1924,0.1937,0.1948,0.1804,0.1803,0.1803,0,0,0.1726,0.1764,0.1794,0.1819,0.1868,0.1868,0.1893,0.1913,0.1924,0.1935,0.1907,0.1926,0.1908,0.1903,0.1894,0.1949,0.1942,0.1966,0.2046,0.208,0.209,0.2099,0.2131,0.2142,0.2006,0.2006,0.2007,0,0.1734,0.1772,0.1804,0.1838,0.1865,0.1892,0.1921,0.1924,0.1942,0.195,0.1958,0.1951,0.1938,0.1948,0.1979,0.1967,0.1988,0.1994,0.209,0.2098,0.2106,0.2137,0.2149,0.201,0.2009,0.2009,0.2009,0,0.1759,0.1804,0.1828,0.1876,0.1904,0.194,0.1959,0.1985,0.2008,0.201,0.2033,0.2021,0.2033,0.2047,0.2026,0.2092,0.2087,0.2064,0.2051,0.2122,0.2151,0.2162,0.2015,0.2013,0.2012,0.2012,0,0,0.1736,0.1827,0.1839,0.1873,0.1934,0.1952,0.1985,0.201,0.2034,0.2064,0.2101,0.2095,0.212,0.2115,0.2117,0.2172,0.2255,0.217,0.217,0.2187,0.2342,0.2196,0.2194,0.2253,0.2255,0.2257,0.2343,0,0.1748,0.1812,0.1856,0.1913,0.1945,0.199,0.2013,0.2044,0.2067,0.2106,0.2128,0.2153,0.2136,0.2174,0.2218,0.2235,0.2286,0.2234,0.2285,0.2286,0.2134,0.2202,0.2263,0.2351,0.2354,0.2356,0.2357,0,0.1748,0.1796,0.1858,0.1937,0.1957,0.1995,0.205,0.2079,0.2128,0.2157,0.2204,0.2214,0.2293,0.2274,0.2353,0.2327,0.2344,0.2359,0.2362,0.221,0.2159,0.2265,0.2376,0.2375,0.2373,0.2372,0.2371,0,0.1696,0.1791,0.1842,0.1872,0.1961,0.2002,0.205,0.2101,0.2132,0.2213,0.2261,0.2314,0.238,0.2408,0.2443,0.2418,0.2523,0.2484,0.2361,0.2351,0.2431,0.242,0.2531,0.2531,0.2531,0.2531,0.2531,0,0.167,0.1716,0.1833,0.186,0.192,0.1998,0.2059,0.2107,0.2192,0.223,0.2302,0.2343,0.2423,0.2477,0.2483,0.246,0.2556,0.2378,0.2363,0.2455,0.2446,0.2439,0.2427,0.2534,0.2533,0.2533,0.2532,0,0.1599,0.1679,0.1744,0.186,0.19,0.1946,0.207,0.2099,0.2206,0.227,0.2313,0.2411,0.2479,0.2525,0.2592,0.2506,0.2503,0.2466,0.2585,0.2573,0.2299,0.229,0.2332,0.2327,0.2324,0.232,0.2318,0,0.1564,0.1596,0.173,0.1769,0.183,0.1919,0.1965,0.2087,0.2119,0.2277,0.2291,0.2415,0.2456,0.2436,0.2498,0.2496,0.2456,0.2437,0.2337,0.2297,0.228,0.2276,0.2272,0.2312,0.2311,0.231,0.2309,0,0.1495,0.1561,0.1614,0.1697,0.1764,0.1822,0.1908,0.1926,0.2057,0.2179,0.2213,0.2241,0.2313,0.2341,0.2366,0.2352,0.2438,0.2397,0.2403,0.2308,0.2274,0.2259,0.2259,0.2296,0.2298,0.2299,0.23,0,0.1446,0.1464,0.1546,0.16,0.1677,0.1697,0.1762,0.1809,0.1868,0.2036,0.2048,0.2174,0.2294,0.2268,0.2288,0.227,0.2218,0.2122,0.2142,0.2157,0.2055,0.1982,0.191,0,0,0,0,0,0.1383,0.139,0.1439,0.1486,0.1554,0.1599,0.17,0.1765,0.1898,0.1869,0.1951,0.2001,0.2033,0.2101,0.2044,0.2204,0.2227,0.2126,0.2128,0.2223,0.2238,0.2131,0,0,0,0,0,0,0.134,0.1383,0.1397,0.1376,0.1386,0.1442,0.1504,0.1599,0.159,0.1737,0.1767,0.1874,0.1938,0.2044,0.2004,0.2022,0.1979,0.2206,0.2201,0.2215,0.2228,0.224,0.2135,0,0,0,0,0]},{"header":{"parameterUnit":"m.s-1","parameterCategory":2,"la1":30.2991,"la2":30.254,"lo1":-89.0895,"lo2":-89.0444,"dy":0.0017,"dx":0.0017,"nx":28,"ny":28,"refTime":"2024-05-15T03:00:00:Z","depth":"4","parameterNumber":3,"parameterNumberName":"V-component_of_CURRENTS"},"data":[0,0,0,0,0,0,0,0,0,0,0,0,0,0,0,0,0,0,0,0,0,0,0,0,0,0,0,0,0,0,0,0,0,0,0,0,0,0,0,0,0,0,0,0,0,0,0,0,0,0,0,0,0,0,0,0,0,0,-0.0004,-0.0004,0,-0.0038,-0.0038,-0.0039,-0.0062,-0.0062,-0.0063,-0.0063,-0.0053,-0.0053,-0.0052,0,0,0,0,0,0,0,0,0,0,0,0,0,0.001,0.001,-0.0004,-0.0004,-0.0005,-0.0038,-0.0038,-0.0039,-0.0062,-0.0062,-0.0063,-0.0063,-0.0053,-0.0053,-0.0052,0,0,0,0,0,0,0,0,0,0,0,0,0,-0.0007,0.001,-0.0004,-0.002,-0.0022,-0.0038,-0.0038,-0.0039,-0.0062,-0.0062,-0.0063,-0.0063,-0.0053,-0.0053,-0.0052,-0.0043,0,0,-0.005,-0.005,0,0,0,0,0,0,0,0,-0.0006,-0.0008,-0.0017,-0.0019,-0.0021,-0.0046,-0.003,-0.0038,-0.0062,-0.0047,-0.0063,-0.0063,-0.0047,-0.0047,-0.0053,-0.0043,-0.0042,-0.005,-0.005,-0.005,-0.0049,0,0,0,0,0,0,0,-0.0005,-0.0007,-0.0017,-0.0018,-0.002,-0.0037,-0.0039,-0.0032,-0.0044,-0.0048,-0.005,-0.0054,-0.0047,-0.0054,-0.0053,-0.0042,-0.005,-0.005,-0.0049,-0.0049,-0.0016,-0.0016,0,0,0,0,0,0,0.0001,-0.0005,-0.0016,-0.0018,-0.0014,-0.0037,-0.004,-0.0038,-0.0045,-0.0047,-0.0054,-0.0055,-0.0054,-0.0053,-0.0052,-0.0026,-0.005,-0.0049,-0.0049,-0.0017,-0.0016,-0.0015,0,0,0,0,0,0,0.0002,0.0001,-0.0015,-0.0013,-0.0016,-0.0037,-0.0035,-0.0038,-0.0043,-0.005,-0.0051,-0.0054,-0.0055,-0.0053,-0.0033,-0.0026,-0.0049,-0.0048,-0.0017,-0.0016,-0.0016,0.0017,0,0,0,0,0,0,0.0002,0.0001,0.0006,-0.0012,-0.0016,-0.0017,-0.0034,-0.0039,-0.0045,-0.0047,-0.005,-0.005,-0.0055,-0.0034,-0.0033,-0.0026,-0.0048,-0.0018,-0.0017,-0.0016,0.0015,0.0019,0.0022,0,0,0,0,0,0.0003,0.0013,0.0007,0.0005,-0.0009,-0.0017,-0.002,-0.0036,-0.0044,-0.0042,-0.0038,-0.005,-0.0028,-0.0033,-0.0031,-0.0024,-0.0018,-0.0017,-0.0016,0.0014,0.0018,0.0022,0,0,0,0,0,0,0.0021,0.0011,0.0004,0.001,-0.0,-0.002,-0.0018,-0.0032,-0.0029,-0.0026,-0.0035,-0.0034,-0.0016,-0.0022,-0.0028,-0.0013,-0.0028,-0.0026,-0.0006,-0.0002,0.0001,0.0015,-0.0047,0,0,0,0,0,0.0028,0.0034,0.0018,0.0024,0.0022,0.0002,-0.0003,-0.0013,-0.0016,-0.0017,-0.0019,-0.0018,-0.0012,-0.0007,-0.0003,0.0011,-0.0008,0.0014,0.0017,0.002,0.0032,0.0004,0.0006,-0.0012,-0.0012,-0.0012,0,0,0.0036,0.0032,0.0035,0.0028,0.002,0.0027,-0.0001,-0.0002,0.0008,-0.0013,0.0006,-0.0002,-0.0004,0.001,0.0016,0.0007,0.0014,0.0021,0.0024,0.0034,0.0005,0.0007,0.0008,-0.0011,-0.0011,-0.0011,0,0,0.006,0.0054,0.0068,0.0063,0.0055,0.0046,0.0048,0.0034,0.0034,0.0049,0.0035,0.0034,0.0044,0.004,0.004,0.0065,0.0034,0.006,0.0087,0.006,0.0061,0.0062,0.0035,0.0033,0.0059,0.0059,0.0059,0,0.0069,0.0086,0.007,0.0081,0.0086,0.006,0.0078,0.0075,0.0069,0.0076,0.0064,0.0067,0.006,0.0074,0.0079,0.0073,0.005,0.0072,0.0063,0.0064,0.0064,0.0036,0.0034,0.0061,0.006,0.006,0.006,0,0.0101,0.0115,0.0124,0.0134,0.0136,0.0147,0.0141,0.0146,0.0141,0.0133,0.0144,0.0128,0.0128,0.0118,0.0109,0.0107,0.0088,0.0071,0.0053,0.0068,0.0037,0.0034,0.0063,0.0062,0.0062,0.0061,0,0,0.0123,0.0144,0.0147,0.0167,0.0167,0.0177,0.0197,0.0208,0.0227,0.021,0.0228,0.0218,0.0194,0.0192,0.0167,0.0141,0.0116,0.0109,0.0106,0.0082,0.0053,0.0049,0.0045,0.0092,0.0091,0.0091,0.0028,0,0.0154,0.0194,0.0194,0.0238,0.0261,0.0251,0.0276,0.0281,0.028,0.029,0.0259,0.027,0.0227,0.0226,0.0191,0.0142,0.011,0.0135,0.0043,0.0041,0.0035,0.0042,0.0091,0.0026,0.0025,0.0025,0.0024,0,0.0188,0.0212,0.0262,0.0303,0.0312,0.0337,0.0372,0.039,0.039,0.0387,0.0372,0.0344,0.0315,0.0273,0.0186,0.0201,0.0134,0.0084,0.008,0.0067,0.0032,0.0009,0.0018,0.0018,0.0019,0.0019,0.002,0,0.022,0.0263,0.0311,0.0322,0.0359,0.0388,0.0412,0.0424,0.0455,0.0452,0.0467,0.0411,0.0402,0.0307,0.0204,0.0193,0.01,0.0069,0.0001,-0.0001,0.0005,0.0005,0.0004,0.0004,0.0004,0.0005,0.0005,0,0.0255,0.0293,0.0335,0.0361,0.0429,0.0437,0.0504,0.0514,0.0538,0.0583,0.0524,0.0537,0.041,0.034,0.0226,0.011,0.0113,0.0013,-0.0014,0.002,0.0022,0.0002,0.0003,0.0002,0.0003,0.0003,0.0004,0,0.0281,0.0305,0.0366,0.0421,0.0449,0.0499,0.0576,0.0618,0.0633,0.0687,0.0693,0.0638,0.0548,0.0411,0.0262,0.0159,0.0036,-0.0009,0.0046,0.0023,-0.0056,-0.0053,-0.0093,-0.0094,-0.0094,-0.0095,-0.0095,0,0.0296,0.0332,0.0414,0.046,0.0493,0.057,0.0625,0.0665,0.0713,0.0751,0.0779,0.0716,0.0659,0.0454,0.0292,0.0074,0.0037,-0.0035,-0.0055,-0.0042,-0.0065,-0.0061,-0.0057,-0.0096,-0.0096,-0.0096,-0.0096,0,0.0327,0.0359,0.0409,0.0506,0.058,0.0662,0.0744,0.0787,0.0838,0.0852,0.086,0.0757,0.0654,0.047,0.0306,0.0145,0.0006,-0.0041,-0.0042,-0.0062,-0.0046,-0.0067,-0.0063,-0.0098,-0.0097,-0.0097,-0.0097,0,0.0351,0.0391,0.0462,0.055,0.0642,0.0733,0.0773,0.0836,0.0885,0.092,0.092,0.0807,0.074,0.0508,0.0355,0.0199,0.0145,0.0076,0.0068,0.0068,0.0126,0.017,0.017,0,0,0,0,0,0.037,0.042,0.05,0.06,0.0692,0.0752,0.0844,0.0875,0.0926,0.0942,0.0936,0.084,0.0629,0.0535,0.0379,0.032,0.0102,0.0129,0.0015,-0.0107,-0.0105,-0.0066,0,0,0,0,0,0,0.0385,0.0457,0.05,0.0627,0.0702,0.0812,0.0875,0.0908,0.0915,0.0937,0.0829,0.0788,0.0578,0.0723,0.0374,0.0327,0.0228,0.0033,0.0029,-0.0108,-0.0106,-0.0105,-0.0064,0,0,0,0,0]}]]